contact:dominique.lefevre@mio.osupytheas.fr, maurice.libes@osupytheas.fr, didier.mallarino@osupytheas.fr
Project:EMSO http://www.emso-fr.org/EMSO-France
Depth: 2436.0 m
Title:EMSO Ligure Ouest : Data MII capteur AQUADOPP
Date,Latitude,Longitude,X_East,Y_North,Z_Up,Amplitude_X,Amplitude_Y,Amplitude_Z,Batterie,SoundSpeed,Heading,Pitch,Roll,Pressure,TIS,Speed,Direction
, degrees North, degrees East, m.s-1, m.s-1,m.s-1, 1, 1, 1, Volt, m.s-1, degree, degree, degree, dbar, degree_C, m.s-1, degree
2021-02-22T00:04:03,42.805,6.029,0.046,-0.007,0.034,104.0,106.0,102.0,13.3,1505.2,327.5,-0.8,1.8,2470.54,13.28,0.046,98.7
2021-02-22T00:07:03,42.805,6.029,0.054,-0.014,0.023,104.0,107.0,102.0,13.3,1505.2,326.7,-0.8,1.9,2470.583,13.28,0.055,104.5
2021-02-22T00:10:03,42.805,6.029,0.058,-0.042,0.015,104.0,105.0,102.0,13.4,1505.2,327.6,-0.8,1.8,2470.516,13.28,0.071,125.9
2021-02-22T00:13:03,42.805,6.029,0.046,-0.021,0.008,106.0,104.0,102.0,13.4,1505.2,323.9,-0.8,1.8,2470.53,13.28,0.05,114.5
2021-02-22T00:16:03,42.805,6.029,0.048,-0.041,0.004,103.0,105.0,103.0,13.4,1505.2,326.4,-0.7,1.8,2470.552,13.28,0.063,130.5
2021-02-22T00:19:03,42.805,6.029,0.053,-0.02,0.022,103.0,105.0,102.0,13.4,1505.2,326.6,-0.8,1.8,2470.533,13.28,0.056,110.7
2021-02-22T00:22:03,42.805,6.029,0.048,-0.008,0.067,103.0,107.0,102.0,13.4,1505.2,323.6,-0.8,1.8,2470.537,13.28,0.048,99.5
2021-02-22T00:25:03,42.805,6.029,0.075,-0.015,0.03,104.0,106.0,102.0,13.4,1505.2,323.6,-0.8,1.8,2470.537,13.28,0.076,101.3
2021-02-22T00:28:03,42.805,6.029,0.057,-0.004,0.025,103.0,105.0,103.0,13.3,1505.2,325.9,-0.7,1.8,2470.509,13.28,0.057,94.0
2021-02-22T00:31:03,42.805,6.029,0.058,-0.033,0.005,102.0,107.0,103.0,13.4,1505.2,327.0,-0.7,1.8,2470.576,13.28,0.066,119.6
2021-02-22T00:34:03,42.805,6.029,0.06,-0.007,0.012,103.0,107.0,102.0,13.4,1505.2,325.9,-0.7,1.8,2470.567,13.28,0.06,96.7
2021-02-22T00:37:03,42.805,6.029,0.062,-0.023,0.026,103.0,106.0,101.0,13.4,1505.2,323.6,-0.7,1.9,2470.532,13.28,0.066,110.3
2021-02-22T00:40:03,42.805,6.029,0.062,-0.008,0.054,102.0,105.0,102.0,13.4,1505.2,323.0,-0.8,1.8,2470.478,13.28,0.062,97.3
2021-02-22T00:43:03,42.805,6.029,0.072,-0.017,0.016,103.0,105.0,101.0,13.4,1505.2,324.8,-0.8,1.8,2470.531,13.28,0.073,103.3
2021-02-22T00:46:03,42.805,6.029,0.047,-0.042,0.008,103.0,106.0,102.0,13.4,1505.2,325.5,-0.7,1.8,2470.528,13.28,0.063,131.8
2021-02-22T00:49:03,42.805,6.029,0.066,-0.011,0.072,104.0,105.0,101.0,13.4,1505.2,324.6,-0.7,1.8,2470.541,13.28,0.066,99.5
2021-02-22T00:52:03,42.805,6.029,0.068,-0.014,0.037,103.0,105.0,101.0,13.4,1505.2,326.3,-0.8,1.8,2470.485,13.28,0.069,101.6
2021-02-22T00:55:03,42.805,6.029,0.075,-0.008,0.054,103.0,106.0,102.0,13.4,1505.2,323.0,-0.8,1.8,2470.562,13.28,0.075,96.1
2021-02-22T00:58:03,42.805,6.029,0.054,-0.018,0.006,103.0,106.0,102.0,13.4,1505.2,327.0,-0.7,1.8,2470.526,13.28,0.056,108.4
2021-02-22T01:04:03,42.805,6.029,0.082,-0.036,0.002,103.0,105.0,101.0,13.4,1505.2,324.7,-0.8,1.8,2470.577,13.28,0.089,113.7
2021-02-22T01:07:03,42.805,6.029,0.083,-0.009,0.042,104.0,105.0,102.0,13.4,1505.2,325.2,-0.8,1.9,2470.554,13.28,0.083,96.2
2021-02-22T01:10:03,42.805,6.029,0.079,-0.021,0.025,102.0,106.0,103.0,13.3,1505.2,327.0,-0.8,1.9,2470.574,13.28,0.081,104.9
2021-02-22T01:13:03,42.805,6.029,0.066,-0.038,0.012,104.0,105.0,101.0,13.4,1505.2,328.0,-0.8,1.8,2470.55,13.28,0.076,119.9
2021-02-22T01:16:03,42.805,6.029,0.087,-0.034,0.067,103.0,104.0,101.0,13.4,1505.2,327.8,-0.8,1.8,2470.56,13.28,0.093,111.3
2021-02-22T01:19:03,42.805,6.029,0.071,-0.036,0.011,103.0,106.0,102.0,13.3,1505.2,328.1,-0.7,1.8,2470.578,13.28,0.079,116.9
2021-02-22T01:22:03,42.805,6.029,0.062,-0.018,0.031,103.0,104.0,101.0,13.3,1505.2,326.3,-0.7,1.9,2470.547,13.28,0.064,106.2
2021-02-22T01:25:03,42.805,6.029,0.075,-0.023,0.045,103.0,105.0,102.0,13.3,1505.2,326.6,-0.7,1.8,2470.538,13.28,0.078,107.0
2021-02-22T01:28:03,42.805,6.029,0.052,-0.015,0.033,101.0,106.0,102.0,13.4,1505.2,323.4,-0.8,1.8,2470.545,13.28,0.054,106.1
2021-02-22T01:31:03,42.805,6.029,0.08,-0.031,0.05,103.0,105.0,102.0,13.3,1505.2,327.3,-0.7,1.8,2470.557,13.28,0.085,111.2
2021-02-22T01:34:03,42.805,6.029,0.079,-0.034,0.031,102.0,103.0,102.0,13.4,1505.2,324.0,-0.7,1.8,2470.54,13.28,0.086,113.3
2021-02-22T01:37:03,42.805,6.029,0.063,-0.03,0.026,103.0,103.0,102.0,13.3,1505.2,327.1,-0.7,1.8,2470.564,13.28,0.069,115.5
2021-02-22T01:40:03,42.805,6.029,0.043,-0.037,0.027,103.0,104.0,101.0,13.3,1505.2,326.1,-0.8,1.8,2470.562,13.28,0.056,130.7
2021-02-22T01:43:03,42.805,6.029,0.058,-0.033,0.001,103.0,104.0,102.0,13.4,1505.2,326.5,-0.8,1.8,2470.553,13.28,0.066,119.6
2021-02-22T01:46:03,42.805,6.029,0.069,-0.017,0.015,103.0,105.0,101.0,13.4,1505.2,325.4,-0.7,1.8,2470.569,13.28,0.071,103.8
2021-02-22T01:49:03,42.805,6.029,0.05,-0.013,-0.005,103.0,105.0,102.0,13.4,1505.2,323.7,-0.8,1.8,2470.545,13.28,0.051,104.6
2021-02-22T01:52:03,42.805,6.029,0.084,-0.008,0.079,103.0,104.0,101.0,13.3,1505.2,324.5,-0.8,1.8,2470.557,13.28,0.084,95.4
2021-02-22T01:55:03,42.805,6.029,0.071,-0.025,0.006,103.0,104.0,101.0,13.4,1505.2,324.7,-0.7,1.8,2470.574,13.28,0.075,109.4
2021-02-22T01:58:03,42.805,6.029,0.078,-0.017,0.02,104.0,104.0,102.0,13.3,1505.2,324.8,-0.7,1.8,2470.563,13.28,0.079,102.3
2021-02-22T02:04:03,42.805,6.029,0.056,-0.037,0.015,104.0,104.0,102.0,13.3,1505.2,325.9,-0.8,1.9,2470.6,13.28,0.067,123.5
2021-02-22T02:07:03,42.805,6.029,0.064,-0.02,0.043,104.0,104.0,101.0,13.4,1505.2,328.2,-0.7,1.8,2470.583,13.28,0.067,107.4
2021-02-22T02:10:03,42.805,6.029,0.058,-0.028,0.011,104.0,103.0,101.0,13.4,1505.2,322.6,-0.8,1.8,2470.584,13.28,0.064,115.8
2021-02-22T02:13:03,42.805,6.029,0.052,-0.007,0.032,103.0,106.0,102.0,13.4,1505.2,325.8,-0.8,1.8,2470.558,13.28,0.052,97.7
2021-02-22T02:16:03,42.805,6.029,0.059,-0.024,0.038,103.0,103.0,102.0,13.4,1505.2,328.6,-0.7,1.8,2470.579,13.28,0.063,112.1
2021-02-22T02:19:03,42.805,6.029,0.057,-0.013,0.035,102.0,105.0,102.0,13.3,1505.2,323.5,-0.8,1.8,2470.613,13.28,0.058,102.8
2021-02-22T02:22:03,42.805,6.029,0.063,-0.011,0.024,102.0,105.0,102.0,13.4,1505.2,326.3,-0.7,1.8,2470.545,13.28,0.063,99.9
2021-02-22T02:25:03,42.805,6.029,0.079,-0.013,0.021,103.0,104.0,101.0,13.4,1505.2,327.9,-0.8,1.8,2470.573,13.28,0.08,99.3
2021-02-22T02:28:03,42.805,6.029,0.079,-0.017,0.039,102.0,103.0,101.0,13.4,1505.2,323.2,-0.8,1.8,2470.552,13.28,0.08,102.1
2021-02-22T02:31:03,42.805,6.029,0.042,-0.016,0.036,104.0,104.0,102.0,13.4,1505.2,325.2,-0.8,1.8,2470.573,13.28,0.044,110.9
2021-02-22T02:34:03,42.805,6.029,0.051,-0.016,0.037,102.0,103.0,102.0,13.4,1505.2,324.4,-0.8,1.8,2470.577,13.28,0.053,107.4
2021-02-22T02:37:03,42.805,6.029,0.061,-0.04,0.037,103.0,103.0,102.0,13.4,1505.2,326.1,-0.8,1.9,2470.532,13.28,0.072,123.3
2021-02-22T02:40:03,42.805,6.029,0.054,-0.025,0.037,102.0,104.0,102.0,13.3,1505.2,326.4,-0.8,1.8,2470.583,13.28,0.059,114.8
2021-02-22T02:43:03,42.805,6.029,0.049,-0.021,0.021,103.0,105.0,101.0,13.4,1505.2,323.8,-0.7,1.8,2470.611,13.28,0.053,113.2
2021-02-22T02:46:03,42.805,6.029,0.072,-0.01,0.011,103.0,104.0,101.0,13.4,1505.2,323.5,-0.7,1.8,2470.596,13.28,0.072,97.9
2021-02-22T02:49:03,42.805,6.029,0.036,-0.019,0.001,103.0,102.0,102.0,13.4,1505.2,324.0,-0.8,1.8,2470.526,13.28,0.04,117.8
2021-02-22T02:52:03,42.805,6.029,0.08,-0.024,0.006,102.0,104.0,102.0,13.3,1505.2,325.6,-0.7,1.8,2470.557,13.28,0.083,106.7
2021-02-22T02:55:03,42.805,6.029,0.056,-0.023,0.016,103.0,105.0,101.0,13.3,1505.2,324.5,-0.7,1.8,2470.577,13.28,0.06,112.3
2021-02-22T02:58:03,42.805,6.029,0.066,-0.035,0.034,102.0,104.0,102.0,13.4,1505.2,327.2,-0.8,1.8,2470.564,13.28,0.074,117.9
2021-02-22T03:04:03,42.805,6.029,0.045,-0.026,0.027,103.0,104.0,101.0,13.3,1505.2,326.5,-0.8,1.8,2470.626,13.28,0.051,120.0
2021-02-22T03:07:03,42.805,6.029,0.048,-0.018,0.011,102.0,106.0,101.0,13.4,1505.2,327.3,-0.8,1.8,2470.582,13.28,0.051,110.6
2021-02-22T03:10:03,42.805,6.029,0.062,-0.019,0.014,103.0,104.0,100.0,13.4,1505.2,323.3,-0.8,1.8,2470.608,13.28,0.064,107.0
2021-02-22T03:13:03,42.805,6.029,0.084,-0.037,0.036,103.0,102.0,101.0,13.3,1505.2,324.6,-0.7,1.8,2470.53,13.28,0.091,113.8
2021-02-22T03:16:03,42.805,6.029,0.074,-0.025,0.024,104.0,103.0,101.0,13.4,1505.2,324.5,-0.8,1.8,2470.523,13.28,0.078,108.7
2021-02-22T03:19:03,42.805,6.029,0.064,-0.03,0.035,104.0,103.0,101.0,13.4,1505.2,324.4,-0.7,1.8,2470.581,13.28,0.07,115.1
2021-02-22T03:22:03,42.805,6.029,0.067,-0.029,0.031,102.0,104.0,101.0,13.4,1505.2,324.6,-0.7,1.8,2470.613,13.28,0.073,113.4
2021-02-22T03:25:03,42.805,6.029,0.047,-0.026,0.014,103.0,104.0,102.0,13.4,1505.2,326.5,-0.8,1.8,2470.549,13.28,0.053,118.9
2021-02-22T03:28:03,42.805,6.029,0.038,-0.026,0.0,102.0,103.0,102.0,13.3,1505.2,327.6,-0.8,1.8,2470.585,13.28,0.046,124.4
2021-02-22T03:31:03,42.805,6.029,0.059,-0.024,0.022,104.0,106.0,102.0,13.4,1505.2,326.4,-0.8,1.8,2470.6,13.28,0.063,112.1
2021-02-22T03:34:03,42.805,6.029,0.048,-0.02,0.032,104.0,104.0,102.0,13.4,1505.2,323.9,-0.7,1.8,2470.558,13.28,0.052,112.6
2021-02-22T03:37:03,42.805,6.029,0.062,-0.014,0.018,104.0,105.0,101.0,13.4,1505.2,324.0,-0.8,1.8,2470.552,13.28,0.063,102.7
2021-02-22T03:40:03,42.805,6.029,0.06,-0.022,0.021,105.0,103.0,102.0,13.4,1505.2,324.6,-0.7,1.8,2470.556,13.28,0.063,110.1
2021-02-22T03:43:03,42.805,6.029,0.054,-0.008,0.012,104.0,102.0,101.0,13.3,1505.2,327.0,-0.8,1.8,2470.542,13.28,0.054,98.4
2021-02-22T03:46:03,42.805,6.029,0.068,-0.017,0.04,103.0,105.0,102.0,13.3,1505.2,325.1,-0.8,1.8,2470.564,13.28,0.07,104.0
2021-02-22T03:49:03,42.805,6.029,0.077,-0.016,0.047,104.0,102.0,102.0,13.4,1505.2,327.4,-0.8,1.8,2470.571,13.28,0.078,101.7
2021-02-22T03:52:03,42.805,6.029,0.069,-0.006,0.058,103.0,104.0,102.0,13.4,1505.2,323.3,-0.7,1.8,2470.545,13.28,0.069,95.0
2021-02-22T03:55:03,42.805,6.029,0.066,-0.005,0.014,104.0,106.0,103.0,13.4,1505.2,324.4,-0.8,1.8,2470.557,13.28,0.066,94.3
2021-02-22T03:58:03,42.805,6.029,0.083,-0.022,0.052,103.0,104.0,104.0,13.4,1505.2,325.5,-0.7,1.8,2470.534,13.28,0.085,104.8
2021-02-22T04:04:03,42.805,6.029,0.069,0.0,0.033,104.0,104.0,103.0,13.3,1505.2,323.3,-0.7,1.8,2470.618,13.28,0.068,90.0
2021-02-22T04:07:03,42.805,6.029,0.066,-0.007,0.02,103.0,104.0,103.0,13.4,1505.2,323.6,-0.7,1.8,2470.596,13.28,0.066,96.1
2021-02-22T04:10:03,42.805,6.029,0.073,-0.043,0.017,105.0,105.0,103.0,13.4,1505.2,324.3,-0.8,1.8,2470.602,13.28,0.084,120.5
2021-02-22T04:13:03,42.805,6.029,0.056,-0.016,0.032,104.0,104.0,102.0,13.3,1505.2,324.4,-0.8,1.8,2470.624,13.28,0.058,105.9
2021-02-22T04:16:03,42.805,6.029,0.061,-0.025,0.002,104.0,104.0,103.0,13.4,1505.2,322.6,-0.8,1.8,2470.626,13.28,0.065,112.3
2021-02-22T04:19:03,42.805,6.029,0.064,-0.042,0.033,105.0,104.0,102.0,13.3,1505.2,326.7,-0.7,1.8,2470.594,13.28,0.076,123.3
2021-02-22T04:22:03,42.805,6.029,0.077,-0.038,0.027,105.0,104.0,104.0,13.4,1505.2,324.5,-0.7,1.8,2470.581,13.28,0.085,116.3
2021-02-22T04:25:03,42.805,6.029,0.087,-0.028,0.018,104.0,105.0,102.0,13.3,1505.2,327.6,-0.7,1.9,2470.603,13.28,0.091,107.8
2021-02-22T04:28:03,42.805,6.029,0.058,-0.021,0.038,104.0,105.0,104.0,13.3,1505.2,323.2,-0.8,1.8,2470.568,13.28,0.061,109.9
2021-02-22T04:31:03,42.805,6.029,0.046,-0.018,0.002,105.0,105.0,101.0,13.4,1505.2,326.9,-0.8,1.8,2470.616,13.28,0.049,111.4
2021-02-22T04:34:03,42.805,6.029,0.061,-0.028,0.042,105.0,105.0,102.0,13.4,1505.2,327.7,-0.8,1.8,2470.566,13.28,0.067,114.7
2021-02-22T04:37:03,42.805,6.029,0.055,0.0,0.007,105.0,105.0,103.0,13.4,1505.2,323.1,-0.8,1.8,2470.545,13.28,0.055,90.0
2021-02-22T04:40:03,42.805,6.029,0.082,-0.022,0.025,104.0,104.0,102.0,13.4,1505.2,324.2,-0.8,1.8,2470.592,13.28,0.084,105.0
2021-02-22T04:43:03,42.805,6.029,0.069,-0.01,0.019,104.0,104.0,103.0,13.4,1505.2,327.9,-0.8,1.8,2470.539,13.28,0.069,98.2
2021-02-22T04:46:03,42.805,6.029,0.053,-0.022,0.01,105.0,106.0,102.0,13.4,1505.2,325.8,-0.8,1.8,2470.565,13.28,0.057,112.5
2021-02-22T04:49:03,42.805,6.029,0.091,-0.026,0.03,105.0,104.0,103.0,13.4,1505.2,328.3,-0.8,1.8,2470.562,13.28,0.094,105.9
2021-02-22T04:52:03,42.805,6.029,0.099,-0.031,0.048,105.0,105.0,102.0,13.3,1505.2,323.7,-0.8,1.8,2470.532,13.28,0.103,107.4
2021-02-22T04:55:03,42.805,6.029,0.092,-0.009,0.05,104.0,105.0,103.0,13.4,1505.2,323.9,-0.8,1.8,2470.59,13.28,0.092,95.6
2021-02-22T04:58:03,42.805,6.029,0.061,-0.045,0.014,104.0,106.0,103.0,13.4,1505.2,328.3,-0.7,1.8,2470.534,13.28,0.075,126.4
2021-02-22T05:04:03,42.805,6.029,0.055,-0.037,0.012,105.0,104.0,103.0,13.4,1505.2,323.9,-0.7,1.8,2470.553,13.28,0.066,123.9
2021-02-22T05:07:03,42.805,6.029,0.073,-0.017,0.016,105.0,105.0,103.0,13.3,1505.2,325.0,-0.8,1.8,2470.573,13.28,0.074,103.1
2021-02-22T05:10:03,42.805,6.029,0.063,-0.019,0.018,105.0,106.0,103.0,13.4,1505.2,324.3,-0.8,1.8,2470.559,13.28,0.065,106.8
2021-02-22T05:13:03,42.805,6.029,0.059,-0.038,0.005,106.0,106.0,102.0,13.4,1505.2,328.3,-0.7,1.8,2470.54,13.28,0.07,122.8
2021-02-22T05:16:03,42.805,6.029,0.074,-0.021,0.045,105.0,105.0,102.0,13.4,1505.2,324.4,-0.8,1.8,2470.49,13.28,0.076,105.8
2021-02-22T05:19:03,42.805,6.029,0.08,-0.038,0.029,105.0,104.0,103.0,13.3,1505.2,326.1,-0.8,1.8,2470.561,13.28,0.088,115.4
2021-02-22T05:22:03,42.805,6.029,0.07,-0.013,-0.01,105.0,103.0,104.0,13.3,1505.2,324.2,-0.7,1.8,2470.5,13.28,0.071,100.5
2021-02-22T05:25:03,42.805,6.029,0.061,-0.029,0.019,104.0,104.0,104.0,13.4,1505.2,324.5,-0.8,1.8,2470.51,13.28,0.067,115.4
2021-02-22T05:28:03,42.805,6.029,0.083,-0.034,0.035,104.0,106.0,103.0,13.3,1505.2,324.3,-0.8,1.8,2470.521,13.28,0.089,112.3
2021-02-22T05:31:03,42.805,6.029,0.076,-0.028,0.006,104.0,106.0,102.0,13.4,1505.2,324.8,-0.7,1.8,2470.535,13.28,0.08,110.2
2021-02-22T05:34:03,42.805,6.029,0.052,-0.031,-0.002,104.0,104.0,103.0,13.4,1505.2,327.0,-0.7,1.9,2470.479,13.28,0.06,120.8
2021-02-22T05:37:03,42.805,6.029,0.049,-0.033,0.025,105.0,106.0,102.0,13.4,1505.2,322.9,-0.7,1.8,2470.499,13.28,0.059,124.0
2021-02-22T05:40:03,42.805,6.029,0.082,-0.028,0.037,105.0,104.0,103.0,13.3,1505.2,328.4,-0.8,1.8,2470.499,13.28,0.086,108.9
2021-02-22T05:43:03,42.805,6.029,0.06,-0.031,0.046,105.0,104.0,103.0,13.3,1505.2,325.6,-0.7,1.8,2470.51,13.28,0.067,117.3
2021-02-22T05:46:03,42.805,6.029,0.065,-0.029,0.02,104.0,104.0,102.0,13.4,1505.2,328.4,-0.8,1.8,2470.541,13.28,0.071,114.0
2021-02-22T05:49:03,42.805,6.029,0.067,-0.033,0.012,105.0,105.0,103.0,13.4,1505.2,324.6,-0.7,1.8,2470.53,13.28,0.074,116.2
2021-02-22T05:52:03,42.805,6.029,0.064,-0.036,0.017,104.0,105.0,103.0,13.3,1505.2,326.9,-0.7,1.8,2470.499,13.28,0.073,119.4
2021-02-22T05:55:03,42.805,6.029,0.06,-0.024,0.012,104.0,105.0,103.0,13.3,1505.2,323.8,-0.7,1.8,2470.507,13.28,0.064,111.8
2021-02-22T05:58:03,42.805,6.029,0.078,-0.051,0.019,105.0,104.0,102.0,13.4,1505.2,323.0,-0.8,1.8,2470.49,13.28,0.093,123.2
2021-02-22T06:04:03,42.805,6.029,0.08,-0.036,0.037,105.0,104.0,102.0,13.4,1505.2,322.8,-0.8,1.8,2470.506,13.28,0.087,114.2
2021-02-22T06:07:03,42.805,6.029,0.044,-0.047,0.022,106.0,104.0,101.0,13.3,1505.2,326.8,-0.8,1.8,2470.473,13.28,0.064,136.9
2021-02-22T06:10:03,42.805,6.029,0.065,-0.036,0.012,105.0,105.0,103.0,13.4,1505.2,324.6,-0.7,1.8,2470.504,13.28,0.074,119.0
2021-02-22T06:13:03,42.805,6.029,0.071,-0.036,0.018,104.0,104.0,103.0,13.3,1505.2,327.0,-0.8,1.8,2470.489,13.28,0.079,116.9
2021-02-22T06:16:03,42.805,6.029,0.064,-0.011,-0.014,104.0,105.0,101.0,13.3,1505.2,325.0,-0.8,1.9,2470.512,13.28,0.064,99.8
2021-02-22T06:19:03,42.805,6.029,0.063,-0.018,0.006,104.0,104.0,103.0,13.4,1505.2,326.7,-0.8,1.8,2470.478,13.28,0.065,105.9
2021-02-22T06:22:03,42.805,6.029,0.095,-0.025,0.067,104.0,103.0,103.0,13.4,1505.2,324.7,-0.7,1.8,2470.479,13.28,0.098,104.7
2021-02-22T06:25:03,42.805,6.029,0.061,-0.022,0.024,105.0,105.0,102.0,13.3,1505.2,328.1,-0.8,1.8,2470.494,13.28,0.064,109.8
2021-02-22T06:28:03,42.805,6.029,0.079,-0.044,0.024,104.0,105.0,102.0,13.3,1505.2,323.2,-0.7,1.8,2470.489,13.28,0.09,119.1
2021-02-22T06:31:03,42.805,6.029,0.05,-0.022,-0.003,105.0,106.0,103.0,13.3,1505.2,326.5,-0.7,1.8,2470.477,13.28,0.054,113.7
2021-02-22T06:34:03,42.805,6.029,0.071,-0.027,0.013,106.0,105.0,103.0,13.4,1505.2,324.8,-0.8,1.8,2470.496,13.28,0.075,110.8
2021-02-22T06:37:03,42.805,6.029,0.071,-0.025,0.019,105.0,105.0,102.0,13.3,1505.2,327.9,-0.7,1.8,2470.457,13.28,0.075,109.4
2021-02-22T06:40:03,42.805,6.029,0.08,-0.03,-0.004,106.0,105.0,103.0,13.4,1505.2,324.2,-0.7,1.8,2470.479,13.28,0.085,110.6
2021-02-22T06:43:03,42.805,6.029,0.065,-0.028,0.01,106.0,105.0,102.0,13.3,1505.2,322.9,-0.8,1.8,2470.499,13.28,0.07,113.3
2021-02-22T06:46:03,42.805,6.029,0.083,-0.037,0.012,105.0,104.0,102.0,13.4,1505.2,325.5,-0.8,1.8,2470.453,13.28,0.09,114.0
2021-02-22T06:49:03,42.805,6.029,0.076,-0.032,0.036,105.0,104.0,103.0,13.4,1505.2,326.0,-0.8,1.8,2470.492,13.28,0.082,112.8
2021-02-22T06:52:03,42.805,6.029,0.045,-0.017,0.028,104.0,106.0,103.0,13.3,1505.2,324.9,-0.8,1.9,2470.494,13.28,0.048,110.7
2021-02-22T06:55:03,42.805,6.029,0.071,-0.017,-0.02,105.0,106.0,103.0,13.4,1505.2,324.5,-0.8,1.8,2470.46,13.28,0.073,103.5
2021-02-22T06:58:03,42.805,6.029,0.064,-0.03,0.016,105.0,104.0,103.0,13.4,1505.2,324.8,-0.8,1.8,2470.468,13.28,0.07,115.1
2021-02-22T07:04:03,42.805,6.029,0.087,-0.031,0.051,104.0,105.0,103.0,13.3,1505.2,327.2,-0.8,1.8,2470.5,13.28,0.092,109.6
2021-02-22T07:07:03,42.805,6.029,0.054,-0.021,0.026,105.0,105.0,102.0,13.4,1505.2,322.8,-0.7,1.8,2470.46,13.28,0.057,111.2
2021-02-22T07:10:03,42.805,6.029,0.062,-0.043,0.03,105.0,105.0,103.0,13.4,1505.2,323.8,-0.8,1.8,2470.46,13.28,0.075,124.7
2021-02-22T07:13:03,42.805,6.029,0.054,-0.032,-0.004,104.0,104.0,103.0,13.4,1505.2,323.0,-0.8,1.8,2470.489,13.28,0.062,120.7
2021-02-22T07:16:03,42.805,6.029,0.053,-0.031,0.016,104.0,104.0,103.0,13.3,1505.2,325.5,-0.7,1.8,2470.44,13.28,0.061,120.3
2021-02-22T07:19:03,42.805,6.029,0.064,-0.018,0.001,103.0,105.0,103.0,13.4,1505.2,326.1,-0.7,1.8,2470.504,13.28,0.066,105.7
2021-02-22T07:22:03,42.805,6.029,0.042,-0.016,0.03,106.0,105.0,103.0,13.4,1505.2,325.5,-0.7,1.8,2470.469,13.28,0.044,110.9
2021-02-22T07:25:03,42.805,6.029,0.09,-0.03,0.012,106.0,103.0,103.0,13.4,1505.2,327.9,-0.8,1.8,2470.461,13.28,0.094,108.4
2021-02-22T07:28:03,42.805,6.029,0.07,-0.033,0.01,106.0,103.0,103.0,13.3,1505.2,325.7,-0.8,1.8,2470.398,13.28,0.077,115.2
2021-02-22T07:31:03,42.805,6.029,0.086,-0.026,0.031,106.0,104.0,103.0,13.3,1505.2,324.6,-0.8,1.8,2470.454,13.28,0.089,106.8
2021-02-22T07:34:03,42.805,6.029,0.072,-0.041,0.02,105.0,106.0,103.0,13.4,1505.2,325.0,-0.7,1.9,2470.439,13.28,0.082,119.7
2021-02-22T07:37:03,42.805,6.029,0.068,-0.032,0.018,105.0,104.0,103.0,13.3,1505.2,326.7,-0.7,1.8,2470.446,13.28,0.075,115.2
2021-02-22T07:40:03,42.805,6.029,0.09,-0.04,0.011,106.0,104.0,103.0,13.3,1505.2,324.3,-0.8,1.8,2470.408,13.28,0.098,114.0
2021-02-22T07:43:03,42.805,6.029,0.094,-0.059,-0.003,106.0,105.0,102.0,13.4,1505.2,325.7,-0.8,1.8,2470.45,13.28,0.11,122.1
2021-02-22T07:46:03,42.805,6.029,0.061,-0.015,0.021,106.0,104.0,103.0,13.4,1505.2,326.7,-0.8,1.8,2470.459,13.28,0.062,103.8
2021-02-22T07:49:03,42.805,6.029,0.07,-0.009,0.01,105.0,104.0,103.0,13.4,1505.2,323.2,-0.7,1.8,2470.436,13.28,0.07,97.3
2021-02-22T07:52:03,42.805,6.029,0.053,-0.039,0.002,105.0,104.0,103.0,13.4,1505.2,326.1,-0.8,1.8,2470.456,13.28,0.065,126.3
2021-02-22T07:55:03,42.805,6.029,0.054,-0.034,0.02,105.0,104.0,103.0,13.3,1505.2,326.5,-0.8,1.9,2470.449,13.28,0.063,122.2
2021-02-22T07:58:03,42.805,6.029,0.054,-0.03,0.017,105.0,104.0,103.0,13.4,1505.2,327.8,-0.7,1.8,2470.473,13.28,0.061,119.1
2021-02-22T08:04:03,42.805,6.029,0.093,-0.023,0.015,105.0,106.0,103.0,13.4,1505.2,326.4,-0.8,1.8,2470.465,13.28,0.095,103.9
2021-02-22T08:07:03,42.805,6.029,0.058,-0.018,0.014,106.0,104.0,103.0,13.3,1505.2,324.6,-0.8,1.8,2470.461,13.28,0.06,107.2
2021-02-22T08:10:03,42.805,6.029,0.049,-0.032,0.033,106.0,105.0,102.0,13.4,1505.2,327.6,-0.7,1.9,2470.464,13.28,0.058,123.2
2021-02-22T08:13:03,42.805,6.029,0.068,-0.036,0.009,105.0,104.0,102.0,13.4,1505.2,323.8,-0.7,1.8,2470.47,13.28,0.076,117.9
2021-02-22T08:16:03,42.805,6.029,0.056,-0.029,0.0,105.0,104.0,103.0,13.4,1505.2,325.8,-0.8,1.8,2470.426,13.28,0.063,117.4
2021-02-22T08:19:03,42.805,6.029,0.065,-0.018,0.036,104.0,104.0,103.0,13.3,1505.2,324.6,-0.8,1.9,2470.456,13.28,0.067,105.5
2021-02-22T08:22:03,42.805,6.029,0.069,-0.033,0.015,105.0,105.0,103.0,13.4,1505.2,327.3,-0.8,1.8,2470.442,13.28,0.076,115.6
2021-02-22T08:25:03,42.805,6.029,0.065,-0.039,0.015,104.0,104.0,102.0,13.3,1505.2,326.2,-0.8,1.8,2470.471,13.28,0.075,121.0
2021-02-22T08:28:03,42.805,6.029,0.048,-0.033,0.014,104.0,104.0,103.0,13.4,1505.2,323.4,-0.7,1.8,2470.445,13.28,0.058,124.5
2021-02-22T08:31:03,42.805,6.029,0.062,-0.044,-0.005,105.0,104.0,104.0,13.3,1505.2,324.6,-0.7,1.8,2470.413,13.28,0.076,125.4
2021-02-22T08:34:03,42.805,6.029,0.081,-0.043,-0.005,104.0,105.0,102.0,13.4,1505.2,324.1,-0.8,1.8,2470.43,13.28,0.091,118.0
2021-02-22T08:37:03,42.805,6.029,0.053,-0.023,0.036,105.0,106.0,103.0,13.4,1505.2,327.0,-0.8,1.8,2470.436,13.28,0.057,113.5
2021-02-22T08:40:03,42.805,6.029,0.076,-0.016,0.003,105.0,105.0,103.0,13.4,1505.2,326.0,-0.7,1.8,2470.403,13.28,0.077,101.9
2021-02-22T08:43:03,42.805,6.029,0.075,-0.013,0.054,106.0,104.0,103.0,13.4,1505.2,326.0,-0.7,1.8,2470.437,13.28,0.076,99.8
2021-02-22T08:46:03,42.805,6.029,0.06,-0.008,-0.012,105.0,105.0,103.0,13.4,1505.2,325.3,-0.7,1.8,2470.458,13.28,0.06,97.6
2021-02-22T08:49:03,42.805,6.029,0.073,-0.034,0.008,105.0,105.0,103.0,13.4,1505.2,328.0,-0.7,1.9,2470.422,13.28,0.08,115.0
2021-02-22T08:52:03,42.805,6.029,0.066,-0.034,0.017,104.0,105.0,104.0,13.3,1505.2,327.5,-0.7,1.9,2470.414,13.28,0.074,117.3
2021-02-22T08:55:03,42.805,6.029,0.071,-0.03,0.008,106.0,104.0,103.0,13.4,1505.2,324.5,-0.8,1.8,2470.409,13.28,0.077,112.9
2021-02-22T08:58:03,42.805,6.029,0.072,-0.027,0.019,105.0,105.0,103.0,13.4,1505.2,323.7,-0.8,1.9,2470.442,13.28,0.076,110.6
2021-02-22T09:04:03,42.805,6.029,0.062,-0.035,0.0,106.0,105.0,103.0,13.4,1505.2,323.0,-0.8,1.8,2470.456,13.28,0.071,119.4
2021-02-22T09:07:03,42.805,6.029,0.045,-0.046,-0.015,105.0,103.0,103.0,13.4,1505.2,323.2,-0.8,1.8,2470.428,13.28,0.064,135.6
2021-02-22T09:10:03,42.805,6.029,0.067,-0.019,0.028,105.0,105.0,103.0,13.4,1505.2,326.2,-0.8,1.8,2470.397,13.28,0.069,105.8
2021-02-22T09:13:03,42.805,6.029,0.083,-0.024,0.019,104.0,105.0,103.0,13.4,1505.2,325.8,-0.8,1.9,2470.44,13.28,0.086,106.1
2021-02-22T09:16:03,42.805,6.029,0.06,-0.034,0.026,105.0,105.0,103.0,13.4,1505.2,324.8,-0.8,1.8,2470.412,13.28,0.068,119.5
2021-02-22T09:19:03,42.805,6.029,0.073,-0.042,0.02,105.0,106.0,103.0,13.4,1505.2,327.7,-0.8,1.8,2470.453,13.28,0.084,119.9
2021-02-22T09:22:03,42.805,6.029,0.068,-0.036,0.013,104.0,105.0,102.0,13.4,1505.2,324.1,-0.7,1.8,2470.416,13.28,0.076,117.9
2021-02-22T09:25:03,42.805,6.029,0.051,0.0,0.023,104.0,105.0,103.0,13.4,1505.2,324.2,-0.7,1.8,2470.372,13.28,0.051,90.0
2021-02-22T09:28:03,42.805,6.029,0.054,-0.03,-0.009,106.0,105.0,103.0,13.4,1505.2,328.0,-0.8,1.8,2470.404,13.28,0.061,119.1
2021-02-22T09:31:03,42.805,6.029,0.076,-0.032,0.046,106.0,106.0,102.0,13.4,1505.2,323.3,-0.7,1.9,2470.401,13.28,0.082,112.8
2021-02-22T09:34:03,42.805,6.029,0.055,-0.038,0.011,104.0,105.0,102.0,13.4,1505.2,325.3,-0.7,1.8,2470.418,13.28,0.066,124.6
2021-02-22T09:37:03,42.805,6.029,0.069,-0.019,0.019,105.0,103.0,103.0,13.4,1505.2,323.5,-0.7,1.8,2470.442,13.28,0.071,105.4
2021-02-22T09:40:03,42.805,6.029,0.043,-0.009,0.045,105.0,106.0,103.0,13.4,1505.2,326.2,-0.7,1.9,2470.432,13.28,0.043,101.8
2021-02-22T09:43:03,42.805,6.029,0.046,-0.001,0.019,105.0,105.0,103.0,13.3,1505.2,326.7,-0.7,1.8,2470.43,13.28,0.046,91.2
2021-02-22T09:46:03,42.805,6.029,0.091,-0.018,0.039,104.0,104.0,103.0,13.4,1505.2,323.4,-0.8,1.8,2470.402,13.28,0.092,101.2
2021-02-22T09:49:03,42.805,6.029,0.059,-0.034,0.027,104.0,105.0,102.0,13.4,1505.2,325.2,-0.8,1.9,2470.398,13.28,0.068,120.0
2021-02-22T09:52:03,42.805,6.029,0.062,-0.014,0.026,104.0,105.0,103.0,13.3,1505.2,324.2,-0.8,1.9,2470.429,13.28,0.063,102.7
2021-02-22T09:55:03,42.805,6.029,0.024,-0.024,0.008,105.0,104.0,102.0,13.4,1505.2,323.6,-0.8,1.8,2470.371,13.28,0.033,135.0
2021-02-22T09:58:03,42.805,6.029,0.053,-0.024,0.014,105.0,106.0,103.0,13.4,1505.2,328.3,-0.7,1.8,2470.402,13.28,0.058,114.4